[[{"header":{"parameterUnit":"m.s-1","parameterCategory":1,"la1":30.2991,"la2":30.254,"lo1":-89.0895,"lo2":-89.0444,"dy":0.0017,"dx":0.0017,"nx":28,"ny":28,"refTime":"2023-04-17T21:00:00:Z","depth":0,"parameterNumber":2,"parameterNumberName":"U-component_of_WINDS"},"data":[0,0,0,0,0,0,0,0,0,0,0,0,0,0,0,0,0,0,0,0,0,0,0,0,0,0,0,0,0,0,0,0,0,0,0,0,0,0,0,0,0,0,0,0,0,0,0,0,0,0,0,0,0,0,0,0,0,0,1.9182,1.9183,0,1.9271,1.9272,1.9273,1.9285,1.9285,1.9284,1.9283,1.9377,1.938,1.9383,0,0,0,0,0,0,0,0,0,0,0,0,0,1.9026,1.9029,1.9182,1.9183,1.9184,1.9271,1.9272,1.9274,1.9286,1.9285,1.9284,1.9283,1.9376,1.938,1.9384,0,0,0,0,0,0,0,0,0,0,0,0,0,1.9102,1.9029,1.9182,1.9201,1.9203,1.9271,1.9272,1.9274,1.9286,1.9285,1.9283,1.9282,1.9375,1.9379,1.9384,1.944,0,0,1.9399,1.9402,0,0,0,0,0,0,0,0,1.9098,1.9108,1.9197,1.9199,1.9202,1.9266,1.9252,1.933,1.9286,1.9255,1.9283,1.9281,1.9341,1.9349,1.9368,1.9445,1.9449,1.94,1.9403,1.9405,1.9406,0,0,0,0,0,0,0,1.9093,1.9104,1.9217,1.9198,1.9202,1.9206,1.9215,1.9267,1.9304,1.9257,1.9258,1.9269,1.9343,1.9364,1.9371,1.945,1.94,1.9404,1.9407,1.9409,1.9579,1.9581,0,0,0,0,0,0,1.9083,1.91,1.9215,1.922,1.9146,1.921,1.922,1.9247,1.9303,1.9311,1.927,1.9269,1.9356,1.9365,1.9374,1.9445,1.9405,1.941,1.9412,1.9578,1.9579,1.9581,0,0,0,0,0,0,1.908,1.9093,1.9211,1.916,1.9175,1.9214,1.9243,1.9249,1.927,1.9313,1.932,1.9284,1.9355,1.9367,1.9424,1.9448,1.9412,1.9416,1.9576,1.9578,1.958,1.9586,0,0,0,0,0,0,1.9075,1.9092,1.9113,1.9161,1.9178,1.9258,1.9245,1.9252,1.9279,1.9278,1.9328,1.9335,1.9355,1.9417,1.9429,1.9454,1.942,1.9574,1.9577,1.958,1.9584,1.9588,1.9592,0,0,0,0,0,1.907,1.9111,1.9114,1.9127,1.9204,1.9259,1.927,1.9291,1.928,1.9302,1.933,1.9334,1.9443,1.9422,1.9436,1.9464,1.9572,1.9576,1.9579,1.9582,1.9587,1.9592,0,0,0,0,0,0,1.9065,1.9117,1.9121,1.9178,1.9214,1.9261,1.9289,1.9296,1.9336,1.9334,1.936,1.9371,1.9427,1.9451,1.9427,1.9522,1.9507,1.9514,1.9504,1.951,1.9514,1.9507,1.9424,0,0,0,0,0,1.9071,1.911,1.9154,1.92,1.9218,1.9251,1.9275,1.9289,1.9327,1.9343,1.9375,1.9413,1.9456,1.9484,1.9526,1.9587,1.9599,1.9613,1.9617,1.962,1.9626,1.9662,1.9669,1.9593,1.9593,1.9593,0,0,1.9083,1.9116,1.9139,1.92,1.923,1.9271,1.9263,1.9307,1.9339,1.935,1.9406,1.943,1.9475,1.9535,1.9562,1.9556,1.9649,1.9625,1.9627,1.9631,1.9666,1.9673,1.968,1.9595,1.9595,1.9594,0,0,1.9126,1.9155,1.9197,1.9227,1.9272,1.9293,1.9304,1.935,1.9367,1.9423,1.9433,1.9472,1.9545,1.9577,1.9603,1.9661,1.9666,1.9674,1.9695,1.973,1.9736,1.9742,1.9764,1.9771,1.9679,1.9679,1.9679,0,1.9136,1.9197,1.9219,1.9263,1.929,1.9302,1.9346,1.9375,1.9431,1.945,1.9442,1.9536,1.9567,1.9635,1.9649,1.9669,1.9683,1.9668,1.9733,1.9739,1.9745,1.9766,1.9774,1.968,1.968,1.9679,1.9679,0,1.9208,1.9251,1.928,1.9334,1.9365,1.9409,1.9438,1.9467,1.9479,1.9502,1.956,1.9597,1.9648,1.9665,1.9677,1.9736,1.9731,1.9728,1.9714,1.9752,1.9773,1.9781,1.9681,1.968,1.968,1.968,0,0,1.925,1.9316,1.9327,1.9352,1.9403,1.9438,1.9483,1.9532,1.9557,1.9596,1.9636,1.9699,1.9697,1.9727,1.9742,1.9772,1.9818,1.9766,1.9768,1.9775,1.9888,1.989,1.9899,1.9822,1.9823,1.9825,1.9884,0,1.9301,1.9381,1.9402,1.9471,1.9512,1.9525,1.9565,1.9601,1.9625,1.9664,1.969,1.9735,1.9728,1.9746,1.9777,1.9806,1.9841,1.9802,1.9861,1.9863,1.985,1.991,1.9912,1.9967,1.9892,1.9894,1.9895,0,1.937,1.941,1.9483,1.953,1.9548,1.9584,1.9632,1.9668,1.9711,1.9726,1.9759,1.9772,1.9822,1.9805,1.9875,1.9848,1.9874,1.9892,1.9895,1.9902,1.9881,1.992,1.9985,1.9993,1.9907,1.9906,1.9906,0,1.9395,1.9468,1.9521,1.9542,1.9599,1.9624,1.9648,1.9689,1.9718,1.976,1.978,1.9827,1.9854,1.9891,1.9917,1.9902,1.9986,1.997,2.0001,2.0001,2.0019,2.0017,2.009,2.0033,2.0033,2.0033,2.0033,0,1.945,1.9494,1.9534,1.9567,1.9618,1.9642,1.9693,1.9718,1.9755,1.9794,1.9808,1.9845,1.9877,1.9919,1.9939,1.9995,2.0007,2.0022,2.0027,2.0021,2.0019,2.0039,2.0036,2.0035,2.0035,2.0034,2.0034,0,1.9487,1.9515,1.9574,1.9623,1.9636,1.9671,1.9714,1.9747,1.9771,1.9821,1.9834,1.9872,1.9923,1.9952,2.0015,2.003,2.0092,2.0095,2.0077,2.008,2.0109,2.0107,2.0198,2.0212,2.0145,2.0145,2.0146,0,1.952,1.9554,1.9607,1.9634,1.9659,1.9702,1.9732,1.9759,1.9789,1.9841,1.9869,1.992,1.9962,2.0041,2.0076,2.0125,2.013,2.0158,2.0137,2.0131,2.0132,2.013,2.0134,2.0162,2.0163,2.0163,2.0164,0,1.9577,1.9589,1.9631,1.9678,1.9713,1.9752,1.979,1.9812,1.9845,1.9879,1.993,1.9963,2.0028,2.0079,2.0131,2.0158,2.0167,2.017,2.018,2.0175,2.0164,2.0171,2.0088,2.0168,2.0167,2.0167,2.0167,2.0167,1.9614,1.9646,1.9688,1.9735,1.9767,1.9803,1.9837,1.9865,1.9908,1.9963,1.9976,2.003,2.0074,2.0145,2.0174,2.0217,2.0213,2.0227,2.0231,2.0234,2.0236,2.0156,2.0227,2.0227,2.0227,2.0227,2.0227,0,1.9673,1.9701,1.9743,1.9797,1.9834,1.9838,1.9882,1.9913,1.996,2.0,2.0041,2.0101,2.0151,2.0189,2.0241,2.0269,2.0275,2.0282,2.028,2.0287,2.0236,2.0223,2.0276,2.0276,2.0276,2.0276,2.0276,2.0276,1.9707,1.9762,1.978,1.9852,1.988,1.9933,1.9957,1.9992,2.0023,2.0089,2.0131,2.0155,2.0195,2.025,2.0297,2.0307,2.0326,2.0333,2.0344,2.0296,2.029,2.0285,2.0273,2.0336,2.0336,2.0392,2.0392,2.0392]},{"header":{"parameterUnit":"m.s-1","parameterCategory":1,"la1":30.2991,"la2":30.254,"lo1":-89.0895,"lo2":-89.0444,"dy":0.0017,"dx":0.0017,"nx":28,"ny":28,"refTime":"2023-04-17T21:00:00:Z","depth":0,"parameterNumber":3,"parameterNumberName":"V-component_of_WINDS"},"data":[0,0,0,0,0,0,0,0,0,0,0,0,0,0,0,0,0,0,0,0,0,0,0,0,0,0,0,0,0,0,0,0,0,0,0,0,0,0,0,0,0,0,0,0,0,0,0,0,0,0,0,0,0,0,0,0,0,0,-1.2594,-1.2594,0,-1.2583,-1.2582,-1.2582,-1.265,-1.2652,-1.2654,-1.2656,-1.264,-1.2637,-1.2635,0,0,0,0,0,0,0,0,0,0,0,0,0,-1.2671,-1.267,-1.2594,-1.2594,-1.2594,-1.2583,-1.2582,-1.2582,-1.265,-1.2652,-1.2655,-1.2657,-1.264,-1.2638,-1.2635,0,0,0,0,0,0,0,0,0,0,0,0,0,-1.2646,-1.2669,-1.2594,-1.2626,-1.2629,-1.2583,-1.2582,-1.2582,-1.265,-1.2652,-1.2655,-1.2658,-1.2641,-1.2638,-1.2635,-1.2555,0,0,-1.2624,-1.2623,0,0,0,0,0,0,0,0,-1.2648,-1.2644,-1.2622,-1.2624,-1.2627,-1.2621,-1.2604,-1.2573,-1.2649,-1.2641,-1.2656,-1.266,-1.2631,-1.2628,-1.262,-1.2554,-1.2554,-1.2624,-1.2622,-1.262,-1.262,0,0,0,0,0,0,0,-1.2649,-1.2644,-1.2589,-1.2621,-1.2624,-1.264,-1.264,-1.2598,-1.262,-1.2642,-1.2647,-1.2645,-1.2633,-1.2623,-1.262,-1.2553,-1.2624,-1.2621,-1.2619,-1.2618,-1.2426,-1.2423,0,0,0,0,0,0,-1.2647,-1.2645,-1.259,-1.2589,-1.2645,-1.2637,-1.2636,-1.262,-1.262,-1.2623,-1.2643,-1.2649,-1.2627,-1.2624,-1.2619,-1.2529,-1.262,-1.2617,-1.2615,-1.2429,-1.2425,-1.2422,0,0,0,0,0,0,-1.2649,-1.2642,-1.259,-1.2619,-1.2613,-1.2632,-1.2613,-1.2618,-1.2608,-1.2621,-1.2625,-1.2629,-1.2629,-1.2624,-1.2572,-1.2529,-1.2616,-1.2613,-1.2432,-1.2427,-1.2423,-1.2344,0,0,0,0,0,0,-1.2651,-1.2642,-1.2612,-1.2617,-1.2611,-1.2543,-1.261,-1.2616,-1.2603,-1.261,-1.2609,-1.2611,-1.2631,-1.2576,-1.2568,-1.2526,-1.261,-1.2436,-1.243,-1.2425,-1.2351,-1.2338,-1.2326,0,0,0,0,0,-1.2653,-1.2589,-1.261,-1.2603,-1.2575,-1.254,-1.2537,-1.2562,-1.2599,-1.2569,-1.2578,-1.2611,-1.2535,-1.257,-1.2562,-1.2518,-1.2439,-1.2432,-1.2425,-1.2356,-1.234,-1.2327,0,0,0,0,0,0,-1.2575,-1.259,-1.2614,-1.2549,-1.2543,-1.2552,-1.2515,-1.2544,-1.2526,-1.2533,-1.2565,-1.2564,-1.2506,-1.2507,-1.2546,-1.2442,-1.2493,-1.2484,-1.2444,-1.2429,-1.2417,-1.2418,-1.2607,0,0,0,0,0,-1.2551,-1.2522,-1.2536,-1.2478,-1.2474,-1.2495,-1.248,-1.2501,-1.2496,-1.2493,-1.2497,-1.2489,-1.2464,-1.2447,-1.2424,-1.2352,-1.2353,-1.2317,-1.2305,-1.2295,-1.2286,-1.2251,-1.2236,-1.2399,-1.2399,-1.2399,0,0,-1.2499,-1.2504,-1.2483,-1.2462,-1.246,-1.243,-1.2492,-1.2456,-1.2434,-1.2487,-1.2439,-1.2442,-1.2435,-1.2373,-1.2346,-1.2372,-1.2242,-1.2286,-1.2278,-1.2275,-1.2242,-1.2227,-1.2213,-1.2394,-1.2395,-1.2396,0,0,-1.239,-1.239,-1.2343,-1.234,-1.2338,-1.2352,-1.2341,-1.2346,-1.2351,-1.2304,-1.2343,-1.2317,-1.2272,-1.2267,-1.2258,-1.2151,-1.2181,-1.2142,-1.2078,-1.2042,-1.203,-1.2018,-1.1981,-1.1968,-1.2134,-1.2134,-1.2134,0,-1.2325,-1.2282,-1.2314,-1.2277,-1.2267,-1.2317,-1.2269,-1.2265,-1.2253,-1.2245,-1.2275,-1.2222,-1.2221,-1.2159,-1.2134,-1.2125,-1.2113,-1.2142,-1.2029,-1.2018,-1.2008,-1.1973,-1.1959,-1.2129,-1.213,-1.213,-1.2131,0,-1.2204,-1.2174,-1.2136,-1.2127,-1.2113,-1.2071,-1.2096,-1.2078,-1.2101,-1.2112,-1.2064,-1.2066,-1.2045,-1.2032,-1.2052,-1.1974,-1.1991,-1.2024,-1.2076,-1.1988,-1.1955,-1.1942,-1.2123,-1.2124,-1.2126,-1.2127,0,0,-1.2042,-1.2055,-1.204,-1.2038,-1.2041,-1.2017,-1.1978,-1.196,-1.1945,-1.1936,-1.1904,-1.1867,-1.1899,-1.1889,-1.191,-1.1879,-1.1797,-1.1917,-1.1917,-1.1895,-1.1712,-1.1687,-1.1671,-1.1817,-1.1815,-1.1813,-1.1713,0,-1.1937,-1.1872,-1.1901,-1.1832,-1.1806,-1.1854,-1.182,-1.1818,-1.1828,-1.1807,-1.1818,-1.1792,-1.1836,-1.1831,-1.1802,-1.1812,-1.176,-1.182,-1.1788,-1.1786,-1.1788,-1.1654,-1.1627,-1.1533,-1.1701,-1.1698,-1.1697,0,-1.1804,-1.1793,-1.1723,-1.1733,-1.1723,-1.1692,-1.168,-1.1659,-1.1658,-1.1668,-1.1659,-1.1688,-1.165,-1.1702,-1.1651,-1.1691,-1.168,-1.1683,-1.168,-1.1678,-1.1736,-1.1649,-1.1503,-1.1489,-1.1677,-1.1679,-1.168,0,-1.1694,-1.1662,-1.1617,-1.1614,-1.1624,-1.1602,-1.1604,-1.1606,-1.1595,-1.1584,-1.1577,-1.1561,-1.1552,-1.1539,-1.1562,-1.1598,-1.1508,-1.1562,-1.1516,-1.1515,-1.1494,-1.1495,-1.1345,-1.1486,-1.1486,-1.1486,-1.1487,0,-1.1573,-1.1528,-1.1569,-1.154,-1.1493,-1.1527,-1.1478,-1.1486,-1.1488,-1.1463,-1.1503,-1.1478,-1.1511,-1.1489,-1.1507,-1.1463,-1.1458,-1.1465,-1.1471,-1.1462,-1.1461,-1.1455,-1.1462,-1.1483,-1.1484,-1.1484,-1.1485,0,-1.1442,-1.1467,-1.1421,-1.1437,-1.1439,-1.1403,-1.1416,-1.1391,-1.1406,-1.1373,-1.1367,-1.139,-1.1367,-1.139,-1.1367,-1.138,-1.1321,-1.1335,-1.1322,-1.1326,-1.1279,-1.1283,-1.1119,-1.11,-1.1253,-1.1252,-1.125,0,-1.1363,-1.133,-1.1344,-1.1331,-1.1332,-1.131,-1.13,-1.1333,-1.132,-1.1319,-1.1294,-1.1275,-1.1261,-1.1221,-1.1235,-1.1219,-1.1234,-1.1178,-1.1231,-1.1224,-1.1234,-1.1236,-1.1234,-1.1166,-1.1164,-1.1163,-1.1162,0,-1.122,-1.1236,-1.122,-1.121,-1.1198,-1.119,-1.1186,-1.1173,-1.1207,-1.1191,-1.117,-1.1159,-1.1138,-1.1119,-1.1107,-1.111,-1.1141,-1.1145,-1.1134,-1.1124,-1.1118,-1.1122,-1.1293,-1.1148,-1.115,-1.1151,-1.1151,-1.1152,-1.1114,-1.1088,-1.1095,-1.1077,-1.1078,-1.1074,-1.1052,-1.1066,-1.1049,-1.1036,-1.1057,-1.103,-1.1032,-1.102,-1.102,-1.0999,-1.1023,-1.1005,-1.1001,-1.0997,-1.099,-1.1122,-1.0997,-1.0997,-1.0997,-1.0998,-1.0998,0,-1.0974,-1.0982,-1.0965,-1.096,-1.0947,-1.0981,-1.0979,-1.0965,-1.0941,-1.0942,-1.0929,-1.0905,-1.0887,-1.0902,-1.0887,-1.0868,-1.0882,-1.0863,-1.0865,-1.0865,-1.0969,-1.0981,-1.0852,-1.0852,-1.0852,-1.0852,-1.0852,-1.0852,-1.09,-1.086,-1.0876,-1.0837,-1.0845,-1.0821,-1.0817,-1.0814,-1.0815,-1.0787,-1.0774,-1.0784,-1.079,-1.0777,-1.0763,-1.0768,-1.0761,-1.0736,-1.0746,-1.0843,-1.0857,-1.0871,-1.0882,-1.0734,-1.0734,-1.0644,-1.0643,-1.0642]}]]